KD2GO Weather Reports


time (UTC)temp
C
wind
direction
speed
KPH
gust
KPH
rain 1hr
cm
rain 24hr
cm
rain mn
cm
humidity
%
barometer
mb
20260504214458 21 298 3.2 8.0 0.00 0.00 0.00 42 1008.9
20260504212958 21 341 8.0 20.9 0.00 0.00 0.00 41 1008.9
20260504211458 21 326 6.4 16.1 0.00 0.00 0.00 38 1009.0
20260504210000 20 275 8.0 16.1 0.00 0.00 0.00 40 1009.1
20260504204458 21 288 8.0 19.3 0.00 0.00 0.00 39 1009.3
20260504202959 21 340 8.0 25.7 0.00 0.00 0.00 40 1009.2
20260504195958 21 263 8.0 17.7 0.00 0.00 0.00 39 1009.4
20260504190000 20 327 9.7 25.7 0.00 0.00 0.00 38 1009.9
20260504184458 20 306 9.7 32.2 0.00 0.00 0.00 40 1010.0
20260504182958 20 298 8.0 24.1 0.00 0.00 0.00 40 1010.1
20260504181458 20 359 6.4 20.9 0.00 0.00 0.00 41 1010.4
20260504175959 20 117 8.0 20.9 0.00 0.00 0.00 41 1010.7
20260504174458 19 281 9.7 25.7 0.00 0.00 0.00 38 1010.8
20260504172959 19 264 9.7 20.9 0.00 0.00 0.00 39 1011.0
20260504171458 18 314 9.7 19.3 0.00 0.00 0.00 40 1011.1
20260504081456 6 285 0.0 0.0 0.00 0.00 0.00 63 1013.4
20260504050000 7 309 0.0 1.6 0.00 0.00 0.00 58 1013.2
20260504044500 7 309 0.0 1.6 0.00 0.00 0.00 59 1013.1
20260504043000 7 259 1.6 4.8 0.00 0.00 0.00 58 1013.1
20260504041500 8 135 1.6 4.8 0.00 0.00 0.00 57 1013.0
20260504040004 8 271 1.6 6.4 0.00 0.00 0.00 57 1012.7
20260504034500 8 259 1.6 6.4 0.00 0.00 0.00 55 1012.6
20260504031501 10 293 1.6 6.4 0.00 0.00 0.00 52 1012.5
20260504025959 10 295 3.2 8.0 0.00 0.00 0.00 51 1012.4
20260504024459 10 326 4.8 9.7 0.00 0.00 0.00 51 1012.4
20260504022959 10 304 3.2 8.0 0.00 0.00 0.00 50 1012.4
20260504021459 10 290 3.2 8.0 0.00 0.00 0.00 50 1012.3
20260504015959 10 295 3.2 6.4 0.00 0.00 0.00 49 1012.4
20260504014458 10 304 4.8 9.7 0.00 0.00 0.00 48 1012.3
20260504012959 10 295 4.8 11.3 0.00 0.00 0.00 48 1012.3
20260504011459 10 302 3.2 8.0 0.00 0.00 0.00 49 1012.1
20260504005959 10 279 3.2 8.0 0.00 0.00 0.00 48 1011.9
20260504004459 10 302 3.2 6.4 0.00 0.00 0.00 48 1011.8
20260504002958 11 323 1.6 8.0 0.00 0.00 0.00 47 1011.5
20260504001458 11 305 3.2 9.7 0.00 0.00 0.00 46 1011.3
20260504000001 12 300 3.2 6.4 0.00 0.00 0.00 44 1011.2
20260503234459 12 291 3.2 8.0 0.00 0.00 0.00 42 1011.0
20260503232959 13 298 4.8 12.9 0.00 0.00 0.00 39 1010.9
20260503231500 13 321 4.8 14.5 0.00 0.00 0.00 40 1010.9
20260503225959 13 262 4.8 14.5 0.00 0.00 0.00 38 1010.9
20260503224459 13 275 11.3 20.9 0.00 0.00 0.00 35 1010.8
20260503222958 14 290 9.7 24.1 0.00 0.00 0.00 34 1010.7
20260503221459 14 290 11.3 30.6 0.00 0.00 0.00 35 1010.7
20260503215959 14 288 9.7 22.5 0.00 0.00 0.00 34 1010.5